Date,TemperatureHighF,TemperatureAvgF,TemperatureLowF,DewpointHighF,DewpointAvgF,DewpointLowF,HumidityHigh,HumidityAvg,HumidityLow,PressureMaxIn,PressureMinIn,WindSpeedMaxMPH,WindSpeedAvgMPH,GustSpeedMaxMPH,PrecipitationSumIn
2014-1-1,54.2,47.5,41.9,42.7,23.4,-48.1,66,41,3,30.33,30.20,13,1,13,0.01
2014-1-2,54.4,47.4,42.8,42.7,24.5,-48.1,67,43,1,30.22,30.09,22,3,22,0.10
2014-1-3,48.1,43.6,38.1,36.2,18.3,-51.2,67,39,1,30.31,30.12,27,6,27,0.02
2014-1-4,52.7,42.9,32.0,38.6,22.7,-57.3,67,47,1,30.36,30.26,24,3,24,0.00
2014-1-5,61.2,53.2,47.8,28.7,21.6,15.0,39,29,20,30.30,30.14,27,9,27,0.00
2014-1-6,53.9,49.5,45.1,39.5,27.1,-49.7,67,45,2,30.23,30.13,22,5,22,0.02
2014-1-7,51.8,48.7,45.4,39.7,11.6,-48.8,66,21,1,30.14,30.02,39,8,39,0.43
2014-1-8,49.9,48.5,47.0,0.0,0.0,0.0,0,0,100,30.09,29.88,49,13,49,0.30
2014-1-9,49.7,48.2,46.6,4.8,-0.3,-48.5,17,0,2,30.14,29.97,38,11,38,0.25
2014-1-10,51.3,49.6,48.3,0.0,0.0,0.0,0,0,100,30.21,29.80,43,11,43,0.04
2014-1-11,51.3,48.9,44.0,35.4,10.9,-17.8,61,19,5,30.14,29.70,46,21,60,0.41
2014-1-12,49.2,48.6,47.4,20.1,-0.0,-48.8,33,2,1,30.55,30.14,39,11,39,0.24
2014-1-13,52.9,48.5,44.2,0.0,0.0,0.0,0,0,100,30.67,30.55,12,2,12,0.00
2014-1-14,59.4,47.3,42.5,46.7,8.2,-48.8,64,15,1,30.64,30.51,15,2,15,0.01
2014-1-15,56.1,45.7,39.1,43.7,21.8,-52.3,66,44,1,30.51,30.38,17,2,17,0.00
2014-1-16,62.9,50.7,42.5,41.2,35.5,29.0,68,57,35,30.37,30.17,9,1,9,0.00
2014-1-17,71.8,54.7,44.0,45.3,35.2,12.5,68,49,28,30.22,30.09,25,2,25,0.00
2014-1-18,48.2,44.5,40.1,34.0,1.3,-52.1,58,11,1,30.26,30.13,20,3,20,0.00
2014-1-19,49.2,42.7,36.9,32.4,9.5,-53.0,57,25,1,30.19,30.11,13,2,13,0.00
2014-1-20,65.3,51.9,45.0,40.8,36.2,30.3,67,55,39,30.22,30.13,20,2,20,0.00
2014-1-21,51.2,46.9,41.7,37.0,13.7,-48.9,67,27,2,30.38,30.20,19,2,19,0.00
2014-1-22,50.9,46.1,41.5,0.0,0.0,0.0,0,0,100,30.39,30.27,17,2,18,0.00
2014-1-23,60.6,49.5,38.4,39.2,22.1,-53.5,63,32,1,30.27,30.11,36,6,36,0.01
2014-1-24,65.4,55.8,43.6,42.1,27.8,23.1,64,36,21,30.31,30.16,38,11,38,0.00
2014-1-25,59.6,50.7,45.7,46.4,35.6,27.0,65,56,39,30.32,30.20,11,1,11,0.00
2014-1-26,59.2,48.0,42.7,45.8,29.3,-49.8,66,51,1,30.20,30.03,12,1,12,0.00
2014-1-27,52.2,46.0,41.6,37.7,4.3,-51.2,63,14,1,30.17,30.08,15,2,15,0.06
2014-1-28,53.2,49.7,45.2,22.1,1.1,-49.6,36,6,2,30.19,29.97,34,7,34,0.49
2014-1-29,51.1,48.9,45.8,10.5,-0.8,-49.3,22,2,1,30.03,29.89,44,14,44,0.32
2014-1-30,48.4,45.9,42.1,35.7,22.2,-51.8,66,43,1,30.05,30.00,18,7,18,0.06
2014-1-31,47.9,44.6,41.4,29.8,7.6,-51.4,54,17,1,30.18,30.04,22,6,22,0.15
2014-2-1,50.7,43.8,39.7,39.0,16.2,-52.2,65,32,2,30.19,29.97,16,3,16,0.00
2014-2-2,48.2,43.7,40.3,36.3,24.8,-53.1,66,49,2,30.02,29.95,22,4,22,0.07
2014-2-3,45.2,40.3,36.9,29.7,5.6,-54.7,59,13,2,30.15,30.02,28,3,28,0.05
2014-2-4,44.2,38.6,33.1,31.1,10.8,-52.9,64,26,3,30.25,30.14,18,3,18,0.00
2014-2-5,37.2,31.6,26.8,22.5,16.8,8.3,68,55,41,30.26,30.02,33,13,33,0.00
2014-2-6,35.2,28.3,22.4,16.0,-0.5,-59.7,69,22,1,30.02,29.60,40,12,40,0.09
2014-2-7,37.2,33.6,29.0,0.0,-2.8,-59.3,8,0,1,29.84,29.54,32,8,32,0.20
2014-2-8,50.4,40.4,34.8,0.0,0.0,0.0,0,0,100,29.97,29.59,37,11,37,0.73
2014-2-9,54.6,47.1,43.1,11.2,-0.9,-46.2,18,1,1,30.05,29.97,17,3,17,0.03
2014-2-10,50.0,48.4,46.5,14.5,0.6,-36.8,26,4,2,30.20,30.05,35,10,35,0.42
2014-2-11,50.3,49.2,48.5,0.0,0.0,0.0,0,0,100,30.19,29.76,55,14,55,0.99
2014-2-12,91.2,49.7,48.5,0.0,0.0,0.0,0,0,100,30.00,29.75,57,13,57,0.55
2014-2-13,53.6,50.5,47.9,40.7,6.9,-46.1,68,12,1,30.17,29.75,31,5,31,0.54
2014-2-14,53.5,50.8,48.5,0.0,0.0,0.0,0,0,100,30.00,29.75,36,9,36,0.19
2014-2-15,53.6,49.9,47.7,0.0,0.0,0.0,0,0,100,29.90,29.38,61,10,61,1.09
2014-2-16,50.0,49.1,47.0,38.2,27.2,-35.9,66,45,2,30.07,29.92,48,20,48,0.14
2014-2-17,50.8,49.7,47.3,23.0,2.1,-47.9,37,6,1,30.03,29.82,50,15,50,0.42
2014-2-18,51.7,49.1,42.0,36.5,10.4,-36.3,66,19,5,30.06,29.80,54,17,54,0.45
2014-2-19,49.1,45.8,40.9,35.5,18.7,-52.0,64,36,1,30.27,30.06,41,11,41,0.10
2014-2-20,50.1,48.3,46.2,13.3,-0.1,-48.3,24,1,3,30.31,30.24,28,6,28,0.16
2014-2-21,48.3,45.2,38.6,32.1,8.1,-48.5,59,19,1,30.33,30.23,20,5,20,0.00
2014-2-22,47.6,41.4,35.8,32.6,12.0,-55.5,60,28,1,30.23,30.05,19,3,19,0.00
2014-2-23,50.2,44.1,37.3,35.3,2.2,-54.2,58,5,2,30.05,29.97,22,4,22,0.09
2014-2-24,58.6,52.6,47.7,0.0,0.0,0.0,0,0,100,30.01,29.93,16,3,16,0.02
2014-2-25,60.9,53.9,46.3,46.9,26.5,-43.4,67,44,1,29.94,29.85,24,7,24,0.00
2014-2-26,59.3,49.7,45.0,44.9,38.3,34.3,67,65,58,29.86,29.60,23,6,23,0.00
2014-2-27,57.5,50.7,46.1,38.1,8.6,-49.0,67,15,6,29.72,29.57,14,2,14,0.21
2014-2-28,66.0,54.0,46.2,51.2,24.1,-32.9,64,33,5,29.68,29.36,17,3,17,0.01
2014-3-1,52.9,50.4,49.0,40.6,7.4,-35.1,63,12,2,29.74,29.46,23,6,23,0.04
2014-3-2,52.6,51.2,49.2,0.0,0.0,0.0,0,0,100,29.86,29.66,44,15,44,0.34
2014-3-3,52.2,51.1,49.4,0.0,0.0,0.0,0,0,100,30.02,29.76,42,11,42,0.30
2014-3-4,57.9,53.2,50.0,14.9,0.1,-44.3,20,2,2,30.03,29.83,25,6,25,0.05
2014-3-5,58.3,54.2,52.4,0.0,0.0,0.0,0,0,100,29.83,29.51,52,16,52,1.14
2014-3-6,54.8,52.1,49.8,17.9,0.0,-44.8,24,1,1,30.19,29.58,47,17,58,0.25
2014-3-7,58.2,51.8,46.4,38.6,5.3,-48.0,51,8,1,30.29,30.09,20,4,20,0.03
2014-3-8,58.2,52.7,48.1,46.5,11.4,-46.2,65,19,1,30.12,29.85,53,11,53,0.81
2014-3-9,52.6,51.4,50.1,0.0,0.0,0.0,0,0,100,30.08,29.95,37,7,37,0.24
2014-3-10,50.6,48.9,44.3,37.8,16.3,-50.2,63,29,1,30.52,30.05,32,11,32,0.01
2014-3-11,52.7,46.6,40.8,41.2,23.6,-51.2,68,42,1,30.53,30.33,21,5,21,0.00
2014-3-12,63.2,52.4,43.2,46.9,32.4,-47.0,67,50,1,30.33,30.17,21,6,23,0.00
2014-3-13,51.4,47.6,40.4,23.0,2.8,-50.8,34,9,1,30.17,30.10,13,3,13,0.01
2014-3-14,55.4,51.4,46.9,9.7,-1.0,-45.5,16,1,1,30.33,30.08,29,5,29,0.16
2014-3-15,53.6,51.2,45.8,29.8,3.9,-48.3,46,7,1,30.35,30.25,23,6,23,0.00
2014-3-16,53.4,51.4,44.3,0.1,-4.1,-45.4,11,1,1,30.34,30.02,44,14,44,0.38
2014-3-17,47.9,46.0,41.2,37.1,30.1,-49.3,67,56,1,30.43,30.18,42,18,42,0.01
2014-3-18,50.9,45.9,40.2,39.8,15.3,-47.8,66,32,2,30.41,30.17,21,4,21,0.00
2014-3-19,51.7,46.9,41.5,34.1,7.3,-36.3,62,13,14,30.31,30.16,26,7,26,0.03
2014-3-20,49.4,43.8,38.0,38.1,26.4,-16.3,67,53,8,30.39,30.31,21,6,21,0.00
2014-3-21,48.9,43.0,36.1,37.8,29.1,18.1,67,58,40,30.34,30.23,29,8,29,0.00
2014-3-22,50.3,44.0,34.8,38.1,20.9,-55.7,66,40,2,30.30,30.23,23,6,23,0.00
2014-3-23,53.2,46.2,35.9,39.7,25.1,-49.2,67,46,2,30.30,30.15,20,4,20,0.00
2014-3-24,62.4,55.2,46.8,44.2,37.6,-49.1,65,53,1,30.15,29.88,30,9,30,0.00
2014-3-25,54.5,51.3,47.4,42.7,5.2,-48.0,66,10,1,29.88,29.66,44,12,44,0.45
2014-3-26,51.9,49.0,46.5,0.0,-0.8,-47.5,2,0,1,29.66,29.55,37,10,37,0.47
2014-3-27,52.6,50.4,47.9,0.0,0.0,0.0,0,0,100,29.91,29.59,32,13,32,0.13
2014-3-28,53.4,51.8,48.8,0.0,0.0,0.0,0,0,100,29.86,29.73,43,13,43,0.79
2014-3-29,53.6,51.3,46.4,0.0,0.0,0.0,0,0,100,29.95,29.77,43,16,43,0.27
2014-3-30,50.6,47.9,44.9,33.9,17.5,-50.1,54,31,1,30.03,29.91,27,8,27,0.05
2014-3-31,53.9,46.9,43.8,40.6,20.1,-48.5,64,35,4,29.91,29.68,25,7,25,0.12
2014-4-1,53.0,47.7,43.9,39.9,15.8,-50.4,63,27,1,29.98,29.74,16,5,16,0.01
2014-4-2,52.9,47.4,40.5,22.9,1.3,-49.0,31,5,1,30.08,29.98,11,4,11,0.00
2014-4-3,51.9,48.8,47.2,33.3,6.7,-48.5,49,13,2,30.04,29.96,38,8,38,0.35
2014-4-4,51.7,49.1,46.4,28.1,4.8,-49.3,42,11,1,30.02,29.97,25,7,25,0.09
2014-4-5,51.8,50.9,50.0,0.0,0.0,0.0,0,0,100,30.18,30.00,32,11,32,0.12
2014-4-6,54.7,52.0,50.9,0.0,0.0,0.0,0,0,100,30.35,30.18,28,6,28,0.02
2014-4-7,52.4,49.4,47.5,0.0,0.0,0.0,0,0,100,30.31,30.19,9,2,9,0.00
2014-4-8,55.7,50.4,45.3,0.0,0.0,0.0,0,0,100,30.24,30.14,22,2,22,0.04
2014-4-9,52.3,49.8,46.2,36.4,17.7,-47.0,56,27,5,30.26,30.19,30,9,30,0.00
2014-4-10,51.4,47.2,39.7,33.4,20.5,-53.2,59,37,1,30.25,30.13,30,9,30,0.00
2014-4-11,53.4,49.1,44.2,33.8,11.1,-47.2,58,23,1,30.15,30.06,31,10,31,0.00
2014-4-12,51.3,48.3,43.7,37.1,17.1,-47.7,64,31,1,30.14,30.06,27,10,27,0.00
2014-4-13,74.3,54.6,42.6,50.5,24.4,-11.1,65,29,24,30.20,30.07,15,3,15,0.00
2014-4-14,54.5,51.5,48.9,38.7,13.4,-46.2,65,23,1,30.27,30.06,32,11,32,0.00
2014-4-15,54.4,50.1,46.2,39.0,11.8,-48.5,56,24,1,30.30,30.19,23,5,23,0.03
2014-4-16,53.2,50.6,47.3,0.0,0.0,0.0,0,0,100,30.19,30.01,16,5,16,0.04
2014-4-17,52.7,50.7,48.5,32.7,0.9,-47.8,54,4,1,30.08,29.89,33,9,33,0.36
2014-4-18,60.7,50.3,40.6,43.9,22.3,-51.6,64,35,1,30.14,29.85,20,5,20,0.00
2014-4-19,54.9,51.1,46.5,40.1,7.0,-49.0,65,13,1,30.26,29.83,39,11,39,0.07
2014-4-20,55.2,51.1,46.5,36.5,2.5,-46.3,52,7,2,30.28,30.14,11,3,11,0.00
2014-4-21,54.8,49.7,45.5,39.7,11.5,-48.8,58,19,1,30.14,29.92,31,6,31,0.15
2014-4-22,51.8,49.2,44.3,30.1,9.9,-50.3,48,19,1,30.01,29.94,37,13,37,0.19
2014-4-23,52.4,50.7,47.9,0.0,0.0,0.0,0,0,100,29.99,29.77,51,18,51,0.58
2014-4-24,53.3,51.1,46.2,34.0,8.8,-45.7,49,16,2,29.96,29.74,43,10,43,0.31
2014-4-25,52.2,47.5,41.4,38.2,10.9,-50.2,62,25,1,29.92,29.88,18,6,18,0.15
2014-4-26,50.6,46.9,41.4,35.4,9.4,-52.5,56,16,1,29.91,29.72,46,11,46,0.17
2014-4-27,52.1,49.4,45.4,30.5,7.9,-49.7,50,20,1,30.19,29.77,31,11,31,0.25
2014-4-28,58.6,50.8,44.2,45.3,11.4,-47.1,62,17,2,30.34,30.19,14,3,14,0.15
2014-4-29,72.3,57.9,44.7,51.9,29.1,-50.2,63,39,1,30.40,30.23,22,5,22,0.00
2014-4-30,88.8,75.9,66.1,48.3,40.3,33.8,49,29,16,30.23,29.99,34,9,34,0.00
2014-5-1,77.0,67.3,54.4,51.4,38.7,-30.0,59,36,4,30.12,29.97,25,6,25,0.00
2014-5-2,55.6,54.1,52.8,0.0,0.0,0.0,0,0,100,30.13,30.03,21,7,21,0.00
2014-5-3,55.2,53.9,52.1,0.0,0.0,0.0,0,0,100,30.03,29.79,45,13,45,0.26
2014-5-4,54.9,53.3,51.9,0.0,0.0,0.0,0,0,100,29.97,29.81,37,15,37,0.12
2014-5-5,55.2,52.7,50.2,16.4,1.0,-45.8,23,3,1,30.11,29.97,22,6,22,0.06
2014-5-6,56.8,52.7,49.4,42.6,16.7,-46.8,59,26,1,30.12,30.07,20,7,20,0.00
2014-5-7,55.9,51.6,47.8,38.6,21.9,-48.5,56,33,2,30.07,29.93,12,4,12,0.00
2014-5-8,54.4,51.9,48.8,5.2,-0.0,-46.6,15,0,5,29.93,29.75,35,10,35,0.69
2014-5-9,54.9,52.6,48.1,1.8,-1.5,-47.1,12,0,1,30.09,29.91,35,14,35,0.17
2014-5-10,57.6,52.7,47.7,23.5,-0.9,-48.0,30,6,1,30.32,30.09,36,7,36,0.08
2014-5-11,57.2,51.7,45.5,17.2,-2.3,-45.1,23,2,1,30.33,30.24,21,4,21,0.00
2014-5-12,66.2,56.9,48.3,49.8,17.4,-42.9,59,22,1,30.28,30.21,18,4,18,0.00
2014-5-13,72.4,62.1,51.9,51.2,44.1,30.5,60,52,38,30.28,30.19,20,4,20,0.00
2014-5-14,78.8,68.2,61.0,54.1,44.2,-19.9,58,44,3,30.20,30.01,22,4,22,0.00
2014-5-15,64.0,59.6,56.8,48.5,19.6,-28.0,58,23,3,30.14,30.03,25,8,25,0.00
2014-5-16,61.3,57.6,55.5,5.1,-1.0,-42.3,11,0,1,30.18,30.12,21,6,21,0.00
2014-5-17,61.2,57.0,54.7,42.6,6.3,-43.6,51,11,1,30.13,29.90,14,4,14,0.01
2014-5-18,59.2,56.0,52.7,0.0,0.0,0.0,0,0,100,29.94,29.83,29,10,29,0.30
2014-5-19,59.2,55.8,51.3,0.0,0.0,-42.5,0,0,100,30.06,29.92,27,7,27,0.23
2014-5-20,60.4,56.9,54.5,0.0,0.0,0.0,0,0,100,30.19,30.06,33,12,33,0.00
2014-5-21,58.4,54.8,50.7,0.0,-2.3,-45.1,6,0,1,30.20,30.13,25,9,25,0.00
2014-5-22,58.4,54.5,50.5,0.0,0.0,0.0,0,0,100,30.13,30.02,25,5,25,0.00
2014-5-23,58.2,55.1,52.9,0.0,0.0,0.0,0,0,100,30.19,30.05,14,3,14,0.05
2014-5-24,60.1,55.9,52.6,1.9,-0.8,-42.7,10,0,1,30.21,30.15,18,3,18,0.00
2014-5-25,58.4,54.6,49.9,0.0,0.0,0.0,0,0,100,30.16,30.01,36,7,36,0.00
2014-5-26,61.2,56.2,53.9,40.8,7.8,-44.7,52,12,1,30.23,30.10,14,6,14,0.00
2014-5-27,59.4,54.6,48.4,36.8,3.1,-45.2,45,7,1,30.19,30.16,13,4,13,0.00
2014-5-28,59.2,53.7,48.7,13.1,-1.4,-43.7,17,1,1,30.27,30.16,18,5,18,0.58
2014-5-29,58.3,55.2,52.3,29.3,-1.7,-45.4,34,6,1,30.27,30.12,27,7,27,0.04
2014-5-30,58.1,53.8,48.8,0.0,-0.1,-44.8,2,0,2,30.12,30.02,22,6,22,0.00
2014-5-31,58.0,54.0,51.1,0.0,0.0,0.0,0,0,100,30.14,30.06,20,5,20,0.00
2014-6-1,60.7,55.6,52.4,0.0,0.0,0.0,0,0,100,30.14,30.00,20,5,20,0.00
2014-6-2,58.1,54.4,51.5,0.0,0.0,0.0,0,0,100,30.00,29.97,23,8,23,0.00
2014-6-3,60.2,54.5,50.8,0.0,-1.0,-42.4,6,0,1,30.13,30.00,10,2,10,0.00
2014-6-4,56.5,53.8,49.7,0.0,0.0,0.0,0,0,100,30.17,30.12,31,10,31,0.00
2014-6-5,56.7,53.6,51.2,0.0,-4.0,-45.5,7,0,1,30.17,30.11,29,11,29,0.00
2014-6-6,56.4,53.1,49.9,0.0,0.0,0.0,0,0,100,30.15,30.11,31,11,31,0.00
2014-6-7,56.7,53.0,49.9,0.0,0.0,0.0,0,0,100,30.22,30.14,29,11,29,0.00
2014-6-8,56.7,53.2,49.9,0.0,0.0,0.0,0,0,100,30.24,30.14,27,9,27,0.00
2014-6-9,57.7,54.5,50.2,0.0,0.0,0.0,0,0,100,30.18,30.11,29,11,29,0.00
2014-6-10,57.4,53.7,50.1,0.0,-0.5,-44.8,3,0,1,30.16,30.08,24,10,24,0.00
2014-6-11,60.9,55.1,49.3,0.0,0.0,0.0,0,0,100,30.09,29.92,15,4,15,0.00
2014-6-12,55.9,53.4,52.1,0.0,0.0,0.0,0,0,100,29.99,29.89,27,9,27,0.12
2014-6-13,60.5,55.3,52.2,0.0,0.0,0.0,0,0,100,30.22,29.99,28,5,28,0.14
2014-6-14,60.4,55.8,52.3,0.0,0.0,0.0,0,0,100,30.21,30.05,14,3,14,0.00
2014-6-15,58.7,55.1,52.8,0.0,0.0,0.0,0,0,100,30.04,29.95,20,4,20,0.07
2014-6-16,58.4,52.9,48.9,0.0,0.0,0.0,0,0,100,30.09,29.96,30,3,30,0.14
2014-6-17,60.9,55.3,50.4,0.0,-0.1,-41.1,1,0,1,30.21,30.09,12,3,12,0.06
2014-6-18,59.9,54.9,49.1,0.0,-0.1,-42.7,2,0,2,30.18,30.05,17,4,17,0.00
2014-6-19,62.0,57.2,49.7,0.0,0.0,0.0,0,0,100,30.11,30.03,24,5,24,0.00
2014-6-20,60.2,55.8,53.0,0.0,-0.9,-42.3,6,0,1,30.20,30.10,22,7,23,0.04
2014-6-21,58.5,54.2,48.6,0.0,0.0,0.0,0,0,100,30.14,30.05,24,6,24,0.00
2014-6-22,58.8,54.7,50.0,0.0,0.0,0.0,0,0,100,30.09,30.01,17,6,20,0.00
2014-6-23,61.9,56.2,52.1,0.0,0.0,0.0,0,0,100,30.12,30.03,9,1,9,0.00
2014-6-24,66.5,59.8,56.4,0.0,0.0,0.0,0,0,100,30.14,30.03,8,2,8,0.02
2014-6-25,58.5,56.6,54.4,0.0,0.0,0.0,0,0,100,30.03,29.86,13,2,13,0.03
2014-6-26,61.4,57.0,53.2,0.0,-0.4,-41.1,6,0,1,29.92,29.84,34,6,34,0.30
2014-6-27,58.4,56.7,54.5,0.0,0.0,0.0,0,0,100,29.97,29.77,39,13,39,0.32
2014-6-28,63.2,58.3,55.8,0.0,0.0,0.0,0,0,100,30.11,29.97,26,7,26,0.08
2014-6-29,62.3,59.5,57.0,0.0,0.0,0.0,0,0,100,30.23,30.11,21,5,21,0.01
2014-6-30,63.2,58.8,52.8,0.0,0.0,0.0,0,0,100,30.19,29.91,25,6,25,0.00
2014-7-1,69.7,62.0,54.6,10.9,-0.4,-37.4,11,0,1,29.92,29.80,8,2,9,0.00
2014-7-2,63.7,60.2,58.2,0.0,0.0,0.0,0,0,100,30.07,29.92,14,4,14,0.00
2014-7-3,62.7,59.7,58.1,0.0,0.0,0.0,0,0,100,30.13,30.06,19,6,19,0.00
2014-7-4,61.9,58.0,53.2,0.0,0.0,0.0,0,0,100,30.08,30.03,17,5,17,0.00
2014-7-5,65.0,59.7,53.9,0.0,0.0,0.0,0,0,100,30.14,30.08,12,2,12,0.00
2014-7-6,65.7,60.1,56.2,0.0,0.0,0.0,0,0,100,30.19,30.12,15,4,15,0.01
2014-7-7,59.7,57.7,55.2,0.0,0.0,0.0,0,0,100,30.12,30.03,28,9,28,0.00
2014-7-8,60.8,56.4,53.2,0.0,0.0,0.0,0,0,100,30.06,30.02,32,12,32,0.00
2014-7-9,58.7,56.3,52.2,0.0,0.0,0.0,0,0,100,30.06,29.98,28,11,28,0.00
2014-7-10,58.2,55.7,52.1,0.0,0.0,0.0,0,0,100,29.99,29.91,21,9,21,0.00
2014-7-11,58.9,54.3,51.5,0.0,0.0,0.0,0,0,100,30.08,29.92,16,3,16,0.00
2014-7-12,60.9,56.1,53.1,0.0,0.0,0.0,0,0,100,30.15,30.07,13,2,13,0.01
2014-7-13,57.3,55.6,53.7,0.0,0.0,0.0,0,0,100,30.17,30.11,11,1,11,0.04
2014-7-14,57.9,55.6,53.1,0.0,0.0,0.0,0,0,100,30.17,30.09,20,5,20,0.01
2014-7-15,58.8,55.1,52.1,0.0,0.0,0.0,0,0,100,30.11,29.98,28,9,28,0.00
2014-7-16,57.9,54.2,51.3,0.0,0.0,0.0,0,0,100,30.08,30.01,21,8,21,0.00
2014-7-17,59.8,56.2,51.9,0.0,0.0,0.0,0,0,100,30.11,30.05,19,7,19,0.00
2014-7-18,57.8,56.0,52.7,0.0,0.0,0.0,0,0,100,30.15,30.08,26,9,26,0.00
2014-7-19,64.5,58.7,53.1,0.0,0.0,0.0,0,0,100,30.12,30.01,16,5,18,0.00
2014-7-20,62.1,57.7,53.2,0.0,0.0,0.0,0,0,100,30.02,29.98,13,3,13,0.01
2014-7-21,60.8,56.9,52.8,18.8,0.1,-41.5,20,1,1,30.05,30.00,16,3,16,0.00
2014-7-22,57.6,56.1,54.2,0.0,0.0,0.0,0,0,100,30.08,30.03,14,3,14,0.07
2014-7-23,60.0,56.4,54.5,0.0,0.0,0.0,0,0,100,30.19,30.03,30,11,30,0.67
2014-7-24,64.3,58.8,55.3,0.0,0.0,0.0,0,0,100,30.29,30.19,25,8,25,0.05
2014-7-25,62.7,58.2,52.1,0.0,0.0,0.0,0,0,100,30.19,30.09,17,5,17,0.00
2014-7-26,62.2,58.5,53.6,0.0,0.0,0.0,0,0,100,30.16,30.11,24,7,24,0.00
2014-7-27,60.4,57.4,53.1,0.0,0.0,0.0,0,0,100,30.12,30.06,24,7,24,0.00
2014-7-28,58.2,54.5,51.1,0.0,0.0,0.0,0,0,100,30.11,30.07,27,8,27,0.00
2014-7-29,57.5,53.9,50.6,0.0,0.0,0.0,0,0,100,30.16,30.11,23,8,23,0.00
2014-7-30,59.3,55.0,50.9,0.0,-0.4,-44.0,6,0,1,30.14,30.07,29,8,29,0.00
2014-7-31,58.9,56.4,52.1,0.0,0.0,0.0,0,0,100,30.09,30.00,30,8,30,0.00
2014-8-1,58.3,55.3,51.7,0.0,0.0,0.0,0,0,100,30.06,30.00,27,7,27,0.00
2014-8-2,60.7,56.7,52.1,0.0,0.0,0.0,0,0,100,30.07,30.00,12,3,14,0.00
2014-8-3,59.9,56.9,53.4,0.0,0.0,0.0,0,0,100,30.06,29.95,21,8,21,0.00
2014-8-4,59.6,54.8,51.7,0.0,0.0,0.0,0,0,100,30.06,29.98,21,8,21,0.00
2014-8-5,61.4,56.3,52.0,0.0,0.0,0.0,0,0,100,30.14,30.06,14,6,15,0.00
2014-8-6,62.7,58.0,54.4,0.0,0.0,0.0,0,0,100,30.17,30.08,25,5,25,0.00
2014-8-7,58.4,55.7,52.1,0.0,0.0,0.0,0,0,100,30.12,30.07,23,7,23,0.00
2014-8-8,60.8,56.1,52.2,0.0,0.0,0.0,0,0,100,30.14,30.08,23,7,23,0.00
2014-8-9,58.9,56.5,53.4,0.0,0.0,0.0,0,0,100,30.14,30.05,28,8,28,0.00
2014-8-10,60.2,54.3,48.7,0.0,0.0,0.0,0,0,100,30.08,29.92,26,6,26,0.00
2014-8-11,60.1,54.3,49.4,0.0,0.0,0.0,0,0,100,29.97,29.89,17,4,17,0.00
2014-8-12,59.7,55.5,52.4,0.0,0.0,0.0,0,0,100,29.96,29.89,33,6,33,0.01
2014-8-13,64.8,59.4,53.8,0.0,0.0,0.0,0,0,100,30.05,29.95,11,2,11,0.03
2014-8-14,62.4,59.6,57.8,0.0,0.0,0.0,0,0,100,30.03,29.99,17,4,17,0.09
2014-8-15,67.2,60.7,56.8,0.0,0.0,0.0,0,0,100,30.08,29.99,8,1,8,0.00
2014-8-16,63.9,59.8,56.5,0.0,0.0,0.0,0,0,100,30.11,30.06,22,5,22,0.01
2014-8-17,57.7,55.1,52.9,0.0,0.0,0.0,0,0,100,30.12,30.04,28,8,28,0.00
2014-8-18,57.1,54.5,51.7,0.0,0.0,0.0,0,0,100,30.05,29.86,24,7,24,0.00
2014-8-19,60.1,56.6,52.7,0.0,0.0,0.0,0,0,100,29.94,29.88,18,4,18,0.00
2014-8-20,64.1,58.0,53.8,13.0,-1.0,-40.6,14,1,1,30.04,29.92,14,2,14,0.00
2014-8-21,63.8,57.7,51.4,25.5,0.9,-41.3,25,3,1,30.06,29.99,9,1,9,0.00
2014-8-22,61.2,58.5,54.9,0.0,0.0,0.0,0,0,100,30.09,30.00,24,5,24,0.02
2014-8-23,57.9,54.3,51.5,0.0,0.0,0.0,0,0,100,30.12,30.01,26,6,26,0.00
2014-8-24,62.1,56.0,51.2,0.0,0.0,0.0,0,0,100,30.03,29.91,24,8,24,0.01
2014-8-25,60.7,54.5,48.6,0.0,0.0,0.0,0,0,100,29.98,29.92,22,6,22,0.00
2014-8-26,57.6,52.6,47.7,0.0,0.0,0.0,0,0,100,30.05,29.97,23,6,23,0.01
2014-8-27,57.7,54.6,51.0,0.0,0.0,0.0,0,0,100,30.09,30.03,24,8,24,0.00
2014-8-28,63.6,56.4,51.1,0.0,0.0,0.0,0,0,100,30.14,30.04,16,4,16,0.01
2014-8-29,63.4,58.7,55.3,0.0,0.0,0.0,0,0,100,30.05,29.98,9,1,9,0.00
2014-8-30,61.2,58.8,56.3,0.0,0.0,0.0,0,0,100,30.04,29.94,27,4,27,0.44
2014-8-31,66.0,59.1,52.7,31.0,1.2,-39.7,28,2,2,30.10,30.04,7,1,7,0.01
2014-9-1,64.7,59.7,53.5,0.0,-0.4,-38.6,6,0,1,30.09,29.98,15,4,15,0.00
2014-9-2,65.0,59.3,55.9,20.8,0.6,-40.0,19,1,2,30.04,29.96,18,4,18,0.03
2014-9-3,63.4,57.2,52.0,26.7,-0.2,-41.5,26,1,1,30.12,30.04,14,3,15,0.00
2014-9-4,62.9,56.1,49.9,39.0,5.0,-42.8,42,7,1,30.05,29.91,18,4,18,0.01
2014-9-5,90.3,68.7,49.4,52.7,41.4,-46.7,63,40,7,29.94,29.86,26,5,26,0.00
2014-9-6,54.1,51.1,47.8,0.0,0.0,0.0,0,0,100,29.95,29.89,14,5,14,0.00
2014-9-7,57.4,54.1,52.2,0.0,0.0,0.0,0,0,100,29.94,29.91,7,1,9,0.00
2014-9-8,61.9,57.2,53.7,0.0,0.0,0.0,0,0,100,30.02,29.90,21,8,21,0.00
2014-9-9,63.4,57.9,52.2,9.8,-0.0,-39.9,12,0,2,30.17,30.01,13,2,14,0.00
2014-9-10,59.3,56.3,52.7,0.0,0.0,0.0,0,0,100,30.17,30.05,22,6,23,0.00
2014-9-11,80.8,67.7,54.0,45.4,28.8,-43.6,59,23,4,30.06,29.92,29,6,29,0.00
2014-9-12,67.0,60.7,54.4,49.0,38.5,22.8,58,44,29,29.92,29.85,18,4,18,0.00
2014-9-13,70.0,62.2,55.3,53.0,33.8,-43.5,58,38,3,29.85,29.81,9,2,9,0.00
2014-9-14,67.2,58.6,51.0,51.9,20.3,-43.5,58,24,6,29.85,29.81,7,2,8,0.00
2014-9-15,58.2,52.9,48.0,0.0,0.0,0.0,0,0,100,29.92,29.82,20,5,21,0.00
2014-9-16,65.3,60.7,58.0,16.7,0.0,-39.8,16,1,1,29.94,29.83,16,4,16,0.00
2014-9-17,63.2,58.6,55.9,0.0,0.0,0.0,0,0,100,29.84,29.71,12,1,12,0.02
2014-9-18,66.7,60.8,56.0,0.0,0.0,0.0,0,0,100,30.01,29.74,10,2,10,0.02
2014-9-19,64.6,60.4,56.4,0.0,0.0,0.0,0,0,100,30.10,30.01,21,4,22,0.01
2014-9-20,70.3,57.9,51.3,52.9,5.8,-28.7,54,6,2,30.02,29.80,25,4,26,0.01
2014-9-21,62.2,58.6,57.0,0.0,0.0,0.0,0,0,100,29.99,29.89,30,11,32,0.00
2014-9-22,63.8,60.6,57.5,0.0,0.0,0.0,0,0,100,30.02,29.89,17,5,18,0.01
2014-9-23,64.2,61.8,59.3,0.0,0.0,0.0,0,0,100,29.89,29.69,38,9,38,1.24
2014-9-24,64.1,61.0,58.7,0.0,0.0,0.0,0,0,100,29.87,29.75,29,10,33,0.10
2014-9-25,63.1,60.9,58.5,12.6,-0.2,-39.6,14,0,1,29.92,29.81,30,9,31,0.02
2014-9-26,64.6,61.4,56.4,0.0,0.0,0.0,0,0,100,30.08,29.92,25,7,25,0.00
2014-9-27,63.4,59.1,53.7,0.0,0.0,0.0,0,0,100,30.11,30.02,25,5,25,0.00
2014-9-28,64.8,58.3,51.5,0.0,0.0,0.0,0,0,100,30.02,29.94,15,3,16,0.01
2014-9-29,63.1,60.2,56.8,0.0,0.0,0.0,0,0,100,30.08,29.95,24,5,25,0.10
2014-9-30,63.9,59.3,55.2,0.0,0.0,0.0,0,0,100,30.21,30.08,19,3,19,0.10
2014-10-1,61.7,57.5,54.5,14.3,-0.5,-44.3,18,0,1,30.24,30.17,17,5,17,0.00
2014-10-2,62.6,57.1,50.8,26.5,0.3,-44.9,28,3,1,30.25,30.17,17,3,18,0.00
2014-10-3,76.5,61.7,53.7,56.1,36.2,-11.7,60,42,6,30.17,30.11,16,4,18,0.00
2014-10-4,66.4,61.0,56.0,50.3,23.7,-38.5,57,27,4,30.15,30.09,17,3,17,0.00
2014-10-5,65.8,62.0,55.4,0.0,0.0,0.0,0,0,100,30.08,29.99,20,4,20,0.00
2014-10-6,64.7,59.4,53.8,0.0,0.0,0.0,0,0,100,30.00,29.88,19,3,21,0.01
2014-10-7,59.1,56.6,54.3,0.0,0.0,0.0,0,0,100,29.97,29.90,11,2,11,0.01
2014-10-8,64.5,57.7,55.5,0.0,0.0,0.0,0,0,100,30.02,29.95,10,1,10,0.00
2014-10-9,57.3,55.4,53.5,0.0,0.0,0.0,0,0,100,30.05,29.99,9,1,9,0.00
2014-10-10,62.6,58.6,55.6,0.0,0.0,0.0,0,0,100,30.12,30.04,9,2,9,0.00
2014-10-11,62.4,59.7,57.5,0.0,0.0,0.0,0,0,100,30.28,30.07,23,4,23,0.06
2014-10-12,63.5,57.5,52.8,24.1,0.4,-29.1,26,0,11,30.30,29.99,15,1,15,0.02
2014-10-13,64.7,58.9,55.4,50.0,24.9,-21.7,60,30,6,29.99,29.75,38,8,38,0.40
2014-10-14,61.2,56.8,53.5,0.0,0.0,0.0,0,0,100,29.85,29.53,24,4,24,0.55
2014-10-15,59.8,56.4,53.0,0.0,0.0,0.0,0,0,100,29.99,29.51,29,13,39,0.80
2014-10-16,64.8,57.6,54.7,49.9,20.0,-44.1,60,25,2,29.99,29.77,15,5,15,0.00
2014-10-17,64.1,59.3,56.2,49.8,14.4,-43.3,60,18,1,29.88,29.68,35,7,35,0.37
2014-10-18,63.1,59.9,59.0,0.0,0.0,0.0,0,0,100,29.96,29.88,25,10,25,0.04
2014-10-19,64.5,61.3,56.9,10.4,-1.2,-39.3,12,0,1,29.80,29.72,47,12,47,0.06
2014-10-20,61.8,58.2,55.3,0.0,0.0,0.0,0,0,100,29.86,29.72,31,9,31,0.16
2014-10-21,60.7,58.0,56.0,0.0,0.0,0.0,0,0,100,29.98,29.78,41,12,41,0.20
2014-10-22,59.6,57.2,53.9,0.0,0.0,0.0,0,0,100,29.79,29.69,45,13,45,2.21
2014-10-23,59.9,57.5,55.0,0.0,0.0,0.0,0,0,100,29.98,29.74,30,9,30,0.60
2014-10-24,58.2,55.6,53.1,20.4,-1.1,-44.1,25,2,1,30.00,29.61,24,8,26,0.29
2014-10-25,59.9,56.3,52.1,24.2,0.7,-43.7,30,2,2,29.95,29.28,48,12,48,0.51
2014-10-26,57.7,54.2,49.9,27.9,-0.5,-45.4,35,2,1,30.17,29.95,39,8,39,0.32
2014-10-27,58.5,54.1,51.1,31.0,2.2,-43.8,36,5,1,30.17,29.95,17,5,17,0.00
2014-10-28,59.6,57.9,55.0,43.2,4.9,-43.5,57,7,2,30.04,29.89,40,14,40,0.23
2014-10-29,61.2,58.7,57.1,0.0,0.0,0.0,0,0,100,30.13,29.93,34,4,34,0.14
2014-10-30,62.7,58.8,53.8,0.0,0.0,0.0,0,0,100,29.94,29.75,34,5,34,0.20
2014-10-31,57.7,53.3,47.4,0.0,0.0,0.0,0,0,100,29.84,29.72,25,5,25,0.18
2014-11-1,57.4,50.1,44.4,0.0,0.0,0.0,0,0,100,30.12,29.82,14,2,14,0.06
2014-11-2,57.3,53.9,49.9,0.0,0.0,0.0,0,0,100,30.21,30.12,32,9,32,0.19
2014-11-3,58.6,56.6,54.8,0.0,0.0,0.0,0,0,100,30.20,30.11,30,9,30,0.45
2014-11-4,59.2,56.6,54.8,0.0,0.0,0.0,0,0,100,30.28,30.05,42,7,42,0.33
2014-11-5,66.7,59.9,56.3,0.0,0.0,0.0,0,0,100,30.26,29.97,13,2,13,0.03
2014-11-6,61.1,57.6,51.2,0.0,0.0,0.0,0,0,100,30.34,29.91,41,12,41,0.23
2014-11-7,57.7,52.0,47.4,0.0,-1.0,-43.5,8,0,1,30.43,30.30,17,2,17,0.02
2014-11-8,58.0,50.2,45.6,14.7,0.2,-45.4,21,1,2,30.30,30.10,13,2,13,0.00
2014-11-9,57.1,53.8,49.7,21.6,-1.3,-45.6,27,3,1,30.11,30.00,35,12,35,0.07
2014-11-10,57.0,50.4,41.8,42.6,12.7,-52.2,59,23,1,30.12,29.96,21,4,21,0.00
2014-11-11,56.6,47.4,40.4,34.0,27.2,15.0,63,46,32,29.97,29.91,36,10,36,0.00
2014-11-12,45.9,42.4,39.1,25.0,18.2,14.4,55,37,35,30.00,29.83,43,19,43,0.00
2014-11-13,43.0,40.0,35.5,27.0,2.8,-25.4,63,7,6,29.90,29.71,36,12,41,1.09
2014-11-14,48.1,39.9,33.3,18.2,1.2,-55.0,46,12,1,30.19,29.91,22,4,22,0.14
2014-11-15,46.4,37.3,32.0,26.0,20.5,6.8,64,51,33,30.38,30.18,33,5,33,0.00
2014-11-16,52.3,43.3,34.5,22.8,17.9,11.9,53,36,28,30.36,30.24,29,9,29,0.00
2014-11-17,55.1,47.6,42.6,27.3,22.4,20.1,44,37,30,30.27,30.05,26,9,26,0.00
2014-11-18,59.0,52.3,45.6,33.2,27.1,23.3,44,38,28,30.07,29.95,18,7,18,0.00
2014-11-19,61.3,55.1,48.8,42.7,18.5,-45.4,58,23,1,29.95,29.76,27,8,27,0.17
2014-11-20,57.6,54.3,52.0,0.0,0.0,0.0,0,0,100,29.96,29.92,24,5,24,0.11
2014-11-21,58.2,54.3,52.7,0.0,0.0,0.0,0,0,100,29.91,29.51,55,14,55,0.83
2014-11-22,55.0,52.5,47.9,23.1,-1.8,-47.4,31,2,1,30.27,29.69,35,10,35,0.15
2014-11-23,57.1,54.9,50.5,0.0,0.0,0.0,0,0,100,30.35,30.26,30,10,30,0.08
2014-11-24,57.4,53.6,49.9,32.6,3.5,-45.1,44,5,5,30.35,30.27,34,8,34,0.11
2014-11-25,57.4,56.6,54.9,0.0,0.0,0.0,0,0,100,30.39,30.29,28,12,28,0.07
2014-11-26,61.8,56.9,50.6,48.8,15.5,-42.0,64,20,2,30.30,29.98,41,8,41,0.00
2014-11-27,58.6,55.4,53.2,0.0,0.0,0.0,0,0,100,30.00,29.80,43,14,43,0.76
2014-11-28,56.7,55.5,53.8,0.0,0.0,0.0,0,0,100,29.80,29.55,43,17,43,0.24
2014-11-29,49.3,42.8,34.3,36.8,14.3,-55.3,65,39,1,30.03,29.67,43,14,43,0.03
2014-11-30,46.7,37.3,30.0,31.4,14.4,-59.7,65,38,1,30.03,29.91,28,5,28,0.00
2014-12-1,47.1,42.8,39.4,29.6,5.9,-53.0,65,20,1,30.09,29.98,28,6,28,0.00
2014-12-2,50.1,45.9,42.8,37.7,15.4,-50.3,64,30,1,30.06,29.66,37,9,37,0.00
2014-12-3,54.1,48.7,44.5,39.9,32.7,-50.5,65,56,2,29.70,29.63,33,10,33,0.04
2014-12-4,56.3,52.7,48.2,0.0,0.0,0.0,0,0,100,29.88,29.69,18,6,30,1.09
2014-12-5,59.7,56.5,54.2,37.6,5.2,-42.7,44,7,3,29.88,29.81,22,6,22,0.03
2014-12-6,56.4,55.2,52.1,14.1,0.2,0.0,21,0,19,30.16,29.83,41,14,41,0.11
2014-12-7,61.0,56.2,51.8,45.6,38.5,14.0,61,53,21,30.15,29.91,35,9,35,0.00
2014-12-8,63.1,59.6,55.6,48.7,41.8,-41.5,61,54,10,30.00,29.87,40,10,40,0.00
2014-12-9,63.7,59.0,57.1,49.1,6.1,-41.9,59,8,1,29.93,29.69,50,14,50,0.61
2014-12-10,62.2,56.8,51.6,4.5,-0.4,-40.4,10,0,2,29.69,29.27,54,13,54,1.12
2014-12-11,58.2,53.2,49.8,22.6,-0.3,-46.0,26,2,1,29.63,28.99,76,15,76,0.47
2014-12-12,54.7,49.1,45.5,0.0,0.0,0.0,0,0,100,30.07,29.63,12,3,16,0.02
2014-12-13,55.7,49.1,45.1,9.3,-1.2,-49.8,16,0,1,30.21,30.07,21,4,21,0.12
2014-12-14,51.7,46.5,42.2,38.0,15.9,-51.2,61,30,1,30.11,29.83,33,12,33,0.05
2014-12-15,49.9,46.9,43.2,34.5,5.8,-49.9,61,16,1,29.83,29.75,32,9,32,0.19
2014-12-16,52.4,49.0,46.9,33.1,7.6,-48.6,50,14,1,29.78,29.71,23,7,23,0.29
2014-12-17,54.1,48.6,44.8,22.2,0.8,-49.2,34,4,1,29.95,29.72,26,6,31,0.09
2014-12-18,56.3,51.7,47.9,0.0,0.0,0.0,0,0,100,29.95,29.74,34,9,34,0.52
2014-12-19,51.4,48.6,45.2,0.0,0.0,0.0,0,0,100,30.00,29.84,47,7,47,0.60
2014-12-20,56.8,55.2,49.2,0.0,0.0,0.0,0,0,100,29.86,29.66,40,21,51,1.59
2014-12-21,56.5,54.7,52.0,0.0,0.0,0.0,0,0,100,30.22,29.85,28,11,28,0.28
2014-12-22,58.6,53.8,50.4,0.0,0.0,0.0,0,0,100,30.37,30.21,25,5,25,0.03
2014-12-23,55.8,54.9,50.2,0.0,0.0,0.0,0,0,100,30.31,30.02,27,8,27,0.17
2014-12-24,51.2,46.5,42.6,39.4,5.5,-49.2,64,10,1,30.15,29.91,44,12,44,0.47
2014-12-25,51.3,47.9,44.9,39.2,20.3,-49.6,64,34,1,30.30,30.14,39,10,39,0.05
2014-12-26,53.2,48.3,45.4,0.0,0.0,0.0,0,0,100,30.36,30.28,10,2,10,0.09
2014-12-27,51.7,48.8,45.7,34.9,2.3,-49.6,55,5,1,30.33,30.25,32,10,32,0.18
2014-12-28,50.4,48.1,44.3,37.9,24.1,-50.7,64,43,1,30.33,30.21,38,16,38,0.05
2014-12-29,48.1,42.0,33.4,35.8,23.8,-51.3,66,51,2,30.55,30.16,41,8,41,0.01
2014-12-30,39.2,32.1,29.2,22.4,16.2,12.6,64,52,39,30.69,30.55,30,4,30,0.00
2014-12-31,44.2,34.9,29.0,26.2,16.8,11.2,63,48,36,30.64,30.30,13,2,13,0.00
2015-1-1,49.9,39.5,31.9,33.7,24.2,18.0,65,54,40,30.30,30.16,11,2,11,0.00
2015-1-2,47.9,41.9,33.9,35.5,24.3,-50.5,65,51,9,30.24,30.16,14,2,14,0.01